Location: Nowy Sacz
(49.6330°N, 20.7170°E)
Time: 12:21:19
(UTC+01:00)

ISS - Visible Passes

Search period start: 23 February 2024 00:00
Search period end: 04 March 2024 00:00
Orbit: 414 x 417 km, 51.6° (Epoch: 23 February)

Date Brightness Start Highest point End Pass type
(mag) Time Alt. Az. Time Alt. Az. Time Alt. Az.
23 Feb -3.7 04:32:42 67° SSE 04:32:45 67° SSE 04:36:05 10° ENE visible
24 Feb -1.3 03:45:59 22° E 03:45:59 22° E 03:47:24 10° ENE visible
24 Feb -3.6 05:18:52 22° W 05:20:51 65° N 05:24:12 10° ENE visible
25 Feb -3.9 04:32:05 76° NNW 04:32:09 77° NNW 04:35:30 10° ENE visible
26 Feb -1.5 03:45:15 25° ENE 03:45:15 25° ENE 03:46:47 10° ENE visible
26 Feb -3.5 05:18:07 20° WNW 05:20:17 58° N 05:23:37 10° E visible
27 Feb -3.6 04:31:14 58° NNW 04:31:29 60° N 04:34:49 10° ENE visible
28 Feb -1.6 03:44:18 27° ENE 03:44:18 27° ENE 03:46:00 10° ENE visible
28 Feb -3.6 05:17:10 18° WNW 05:19:34 68° N 05:22:55 10° E visible
29 Feb -3.5 04:30:13 52° NW 04:30:42 60° N 04:34:02 10° E visible
01 Mar -1.8 03:43:15 29° ENE 03:43:15 29° ENE 03:45:07 10° E visible
01 Mar -3.8 05:16:07 16° WNW 05:18:39 83° SSW 05:22:00 10° ESE visible
02 Mar -3.8 04:29:09 56° WNW 04:29:45 78° NNE 04:33:07 10° ESE visible
03 Mar -1.9 03:42:13 31° E 03:42:13 31° E 03:44:08 10° E visible
03 Mar -3.3 05:15:05 16° W 05:17:28 46° SSW 05:20:42 10° SE visible
